Location: Oulou
(10.7667°N, 12.5167°W)
Time: 21:34:26
(UTC+00:00)

GP-B - Pass Details

Date: 20 September 2019
Orbit: 631 x 635 km, 89.8° (Epoch: 16 October)

Event Time Altitude Azimuth Distance (km) Brightness Sun altitude
Rises 19:59:20 0° 356° (N) 2,912 6.6 -18.4°
Reaches altitude 10° 20:01:34 10° 352° (N) 2,005 5.8 -19.0°
Maximum altitude 20:05:53 55° 274° (W) 756 3.8 -20.0°
Drops below altitude 10° 20:10:12 10° 197° (SSW) 2,006 5.8 -21.1°
Sets 20:12:26 0° 192° (SSW) 2,913 6.6 -21.6°
